• Join FlightAware (Why Join?)
  • Login
  • US Flag 
10:48PM EST


 

Airport Tracker/Info


-or-


 

Live Flight TrackerFlight Track Log ✈ AWI3688 ✈ 02-May-2013 ✈ KPHL - KALB

Flight Track Log - Related Links

Times and Time Zones

All times are in EDT time to prevent confusion due to time zone crossing. See the AWI3688 flight status page for this flight to view local times or setup timezone preferences in your user account.

Time Position Orientation Groundspeed Altitude Reporting Facility
EDT Latitude Longitude Course Direction KTS MPH feet Rate Location/Type
12:27PM 39.8833 -75.2167 37° Northeast 160 184 800  Level Philadelphia TRACON
12:29PM 39.8222 -75.1333 134° Southeast 234 269 4,800 2,245 Climbing New York Center
12:30PM 39.8243 -74.9653 123° Southeast  Level FlightAware Approximate
12:30PM 39.7936 -75.0667 119° Southeast 234 269 6,900  Level New York Center
12:31PM 39.8167 -74.8742 90° East  Level FlightAware Approximate
12:31PM 39.7931 -74.9639 90° East 232 267 9,400  Level New York Center
12:32PM 39.7999 -74.7829 105° East  Level FlightAware Approximate
12:32PM 39.7922 -74.8694 91° East 269 310 10,900  Level New York Center
12:33PM 39.8081 -74.6753 37° Northeast  Level FlightAware Approximate
12:33PM 39.7969 -74.7344 87° East 301 346 12,300  Level New York Center
12:34PM 39.8644 -74.6464 45° Northeast 312 359 14,000 1,736 Climbing New York Center
12:35PM 39.9442 -74.5669 37° Northeast 325 374 15,800 1,800 Climbing New York Center
12:36PM 40.0256 -74.4928 35° Northeast 339 390 17,600 1,613 Climbing New York Center
12:37PM 40.1053 -74.4128 37° Northeast 359 413 19,000 1,438 Climbing New York Center
12:38PM 40.1847 -74.3408 35° Northeast 353 406 20,500 1,328 Climbing New York Center
12:39PM 40.2700 -74.2747 31° Northeast 348 400 21,700 1,140 Climbing New York Center
12:40PM 40.3553 -74.2081 31° Northeast 353 406 22,800 915 Climbing New York Center
12:41PM 40.4450 -74.1364 31° Northeast 358 412 23,500 610 Climbing New York Center
12:42PM 40.5367 -74.0644 31° Northeast 370 426 24,000 194 Climbing New York Center
12:44PM 40.6833 -73.9564 29° Northeast 388 447 24,000  Level Boston Center
12:45PM 40.7825 -73.8764 31° Northeast 404 465 24,000  Level Boston Center
12:46PM 40.8692 -73.7739 42° Northeast 417 480 24,000 -200 Level Boston Center
12:47PM 40.9683 -73.6633 40° Northeast 423 487 23,600 -455 Descending Boston Center
12:48PM 41.0667 -73.6100 22° Northeast 414 476 23,000 -409 Descending Boston Center
12:49PM 41.1967 -73.5353 23° Northeast 414 476 22,700 -1,750 Descending Boston Center
12:50PM 41.3072 -73.5344 360° North 398 458 19,500 -2,350 Descending Boston Center
12:51PM 41.4156 -73.5333 360° North 390 449 18,000 -1,450 Descending Boston Center
12:52PM 41.5344 -73.5328 360° North 385 443 16,600 -2,300 Descending Boston Center
12:53PM 41.6386 -73.5317 360° North 380 437 13,400 -2,650 Descending Boston Center
12:54PM 41.7386 -73.5306 360° North 369 425 11,300 -1,150 Descending Boston Center
12:55PM 41.8367 -73.5294 360° North 355 409 11,100 -134 Descending Boston Center
12:57PM 42.0242 -73.5272 North 339 390 10,900 -33 Descending Boston Center
12:58PM 42.1117 -73.5286 359° North 323 372 11,000 55 Climbing Boston Center
12:59PM 42.1806 -73.5158 North 308 354 11,000 -385 Level Boston Center
01:00PM 42.2642 -73.5006 North 302 348 10,300 -1,289 Descending Boston Center
01:01PM 42.3328 -73.5297 343° North 267 307 8,400 -2,015 Descending Boston Center
01:02PM 42.4069 -73.5931 328° Northwest 264 304 5,900 -1,820 Descending Boston Center
01:03PM 42.4628 -73.6389 329° Northwest 266 306 4,700 -1,018 Descending Boston Center
01:04PM 42.5269 -73.6908 329° Northwest 264 304 4,000 -545 Descending Boston Center
01:05PM 42.5867 -73.7458 326° Northwest 259 298 3,600 -400 Descending Boston Center